Regional Weather Roundup
Issued by NWS

Home | Current Version | Previous Version | Text Only | Print | Product List | Glossary On
Versions: 1 2 3 4 5 6 7 8 9 10 11 12 13 14 15 16 17 18 19 20 21 22 23 24 25 26 27 28 29 30 31 32 33 34 35 36 37 38 39 40 41 42 43 44 45 46 47 48 49 50
000
ASUS43 KLMK 241510
RWRKY
KENTUCKY REGIONAL WEATHER ROUNDUP
NATIONAL WEATHER SERVICE LOUISVILLE KY
1100 AM EDT THU APR 24 2014

NOTE "FAIR" INDICATES FEW OR NO CLOUDS BELOW 12,000 FEET
WITH NO SIGNIFICANT WEATHER AND/OR OBSTRUCTIONS TO VISIBILITY.

KYZ001>023-026-027-061>063-070>075-241600-
WESTERN AND SOUTH CENTRAL KENTUCKY

CITY           SKY/WX    TMP DP  RH WIND       PRES   REMARKS
PADUCAH        SUNNY     67  42  40 S9        29.91F
HENDERSON      MOSUNNY   59  39  47 SE8       29.96F
OWENSBORO      MOSUNNY   61  41  47 SE14      29.99F
HOPKINSVILLE   SUNNY     63  39  40 S9        29.96F
BOWLING GREEN  PTSUNNY   62  38  40 SE6       30.01F
GLASGOW        MOSUNNY   63  37  37 CALM      30.01F
$$

KYZ024-025-028>034-038-045-046-053-241600-
NORTH CENTRAL KENTUCKY

CITY           SKY/WX    TMP DP  RH WIND       PRES   REMARKS
LOUISVILLE/SDF CLOUDY    58  37  45 SE14      30.05S
LOUISVILLE/LOU CLOUDY    59  36  42 E8        30.05S
FORT KNOX      PTSUNNY   57  35  44 E13       30.03R
$$

KYZ035>037-039>044-047>052-055>060-089>105-241600-
NORTHEAST KENTUCKY

CITY           SKY/WX    TMP DP  RH WIND       PRES   REMARKS
LEXINGTON      PTSUNNY   55  36  48 E12       30.07S
COVINGTON      PTSUNNY   53  29  39 E14       30.09F
FRANKFORT      PTSUNNY   56  39  53 E14       30.06S
$$

KYZ054-064>069-076>088-106>120-241600-
SOUTHEAST KENTUCKY

CITY           SKY/WX    TMP DP  RH WIND       PRES   REMARKS
JACKSON        PTSUNNY   55  34  45 VRB5      30.09S
LONDON         PTSUNNY   57  35  43 VRB3      30.07S
SOMERSET       PTSUNNY   59  32  36 E7        30.06S
MIDDLESBORO    MOSUNNY   61  35  38 CALM      30.07S
MONTICELLO     MOSUNNY   63  38  39 CALM      30.05F
$$




USA.gov is the U.S. government's official web portal to all federal, state and local government web resources and services.